Zurück zum Katalog

BLOCK DM-SL R/B

AktivHEO
NORAD 28365·ROCKET BODY· XX

Gestartet Jun 29, 2004 von Sea Launch Platform

Loading…

Nächste Überflüge (nächste 24 Stunden)

TLE

AktuellSource: Space-Track

Epoche: Sep 14, 2026, 21:09 UTC

1 28365U 04024B   26257.88135390  .00000022  00000-0  48807-3 0  9997
2 28365   0.1106 321.3575 5960355 314.6036  60.3282  3.73394601303076

Verfolge BLOCK DM-SL R/B in Echtzeit mit AllMySat

Download on the App Store